Weather History for Fort Knox, KY

Change the Weather History Date:

Wednesday, February 13, 2013

  Actual Average Record
Temperature  
Mean Temperature 36 °F -  
Max Temperature 40 °F 45 °F 59 °F (2000)
Min Temperature 31 °F 28 °F 13 °F (2014)
Degree Days  
Heating Degree Days 30    
Moisture  
Dew Point 30 °F    
Average Humidity 81    
Maximum Humidity 100    
Minimum Humidity 63    
Precipitation  
Precipitation 0.03 in - - ()
Sea Level Pressure  
Sea Level Pressure 29.85 in    
Wind  
Wind Speed 7 mph (NW)    
Max Wind Speed 13 mph    
Max Gust Speed 17 mph    
Visibility 7 miles    
Events Snow    
Averages and records for this station are not official NWS values.
T = Trace of Precipitation, MM = Missing Value Source: NWS Daily Summary

Daily Weather History Graph

Daily Weather History Graph

Search for Another Location

Airport:

Trip Planner

Search our weather history database for the weather conditions in past years. The results will help you decide how hot, cold, wet, or windy it might be!

Date:

Astronomy

Feb. 13, 2013 Rise Set
Actual Time 7:35 AM EST 6:20 PM EST
Civil Twilight 7:08 AM EST 6:47 PM EST
Nautical Twilight 6:37 AM EST 7:18 PM EST
Astronomical Twilight 6:07 AM EST 7:49 PM EST
Moon 9:09 AM EST (2/13) 10:17 PM EST (2/13)
Length of Visible Light 11h 39m
Length of Day
10h 45m
Waxing Crescent, 13% of the Moon is Illuminated
Feb 13
Waxing Crescent
Feb 17
First Quarter
Feb 25
Full
Mar 4
Last Quarter
Mar 11
New

Hourly Weather History & Observations

Time (EST) Temp. Windchill Dew Point Humidity Pressure Visibility Wind Dir Wind Speed Gust Speed Precip Events Conditions
12:55 AM 37.9 °F 35.5 °F 30.0 °F 73% 29.88 in 10.0 mi North 3.5 mph - N/A   Overcast
1:55 AM 39.6 °F 34.0 °F 28.4 °F 64% 29.86 in 10.0 mi North 8.1 mph - N/A   Overcast
2:55 AM 40.3 °F 33.4 °F 28.4 °F 63% 29.84 in 10.0 mi NNE 11.5 mph - N/A   Overcast
3:55 AM 39.7 °F 34.9 °F 27.9 °F 63% 29.81 in 10.0 mi North 6.9 mph - N/A   Overcast
4:55 AM 39.0 °F 34.8 °F 28.0 °F 65% 29.80 in 10.0 mi NE 5.8 mph - N/A   Mostly Cloudy
5:55 AM 38.7 °F 34.3 °F 27.9 °F 65% 29.77 in 10.0 mi NNE 5.8 mph - N/A   Scattered Clouds
6:55 AM 37.0 °F 29.8 °F 28.6 °F 71% 29.80 in 10.0 mi North 10.4 mph - N/A   Overcast
7:03 AM 37.4 °F 30.8 °F 28.4 °F 70% 29.77 in 10.0 mi North 9.2 mph - N/A Snow Light Snow
7:36 AM 35.6 °F 29.2 °F 28.4 °F 75% 29.79 in 3.0 mi North 8.1 mph - N/A Snow Light Snow
7:55 AM 35.8 °F 30.9 °F 29.3 °F 77% 29.82 in 4.0 mi NNW 5.8 mph - 0.00 in Snow Light Snow
8:09 AM 35.6 °F 31.7 °F 28.4 °F 75% 29.80 in 4.0 mi North 4.6 mph - N/A   Light Ice Pellets
8:55 AM 36.0 °F 29.6 °F 29.5 °F 77% 29.83 in 4.0 mi NNE 8.1 mph - 0.00 in Snow Light Snow
9:55 AM 34.0 °F 27.2 °F 28.6 °F 81% 29.85 in 8.0 mi NNW 8.1 mph - 0.00 in Snow Light Snow
10:04 AM 33.8 °F 27.7 °F 28.4 °F 81% 29.82 in 3.0 mi NNW 6.9 mph - N/A Snow Light Snow
10:30 AM 32.0 °F 22.5 °F 30.2 °F 93% 29.83 in 1.0 mi NNW 12.7 mph 17.3 mph N/A Snow Light Snow
10:55 AM 32.2 °F 26.7 °F 29.7 °F 90% 29.86 in 2.0 mi NNW 5.8 mph - 0.00 in Snow Light Snow
11:02 AM 32.0 °F 26.4 °F 30.2 °F 93% 29.83 in 1.0 mi NW 5.8 mph - N/A Snow Light Snow
11:55 AM 32.4 °F 26.9 °F 30.9 °F 94% 29.87 in 1.0 mi NW 5.8 mph - 0.02 in Snow Light Snow
12:22 PM 32.0 °F 24.8 °F 32.0 °F 100% 29.84 in 1.5 mi NNW 8.1 mph - N/A Snow Light Snow
12:32 PM 32.0 °F 24.8 °F 32.0 °F 100% 29.84 in 2.0 mi NNW 8.1 mph - N/A Snow Light Snow
12:55 PM 34.2 °F 29.0 °F 32.5 °F 94% 29.87 in 2.0 mi Variable 5.8 mph - 0.01 in Snow Light Snow
1:38 PM 35.6 °F 29.9 °F 32.0 °F 87% 29.83 in 4.0 mi WNW 6.9 mph - N/A Snow Light Snow
1:55 PM 35.8 °F 31.9 °F 33.4 °F 91% 29.85 in 4.0 mi West 4.6 mph - 0.00 in Snow Light Snow
2:09 PM 35.6 °F - 32.0 °F 87% 29.82 in 10.0 mi West 2.3 mph - N/A   Overcast
2:55 PM 38.7 °F 34.3 °F 34.3 °F 84% 29.84 in 10.0 mi WSW 5.8 mph - 0.00 in   Mostly Cloudy
3:55 PM 39.7 °F 34.9 °F 34.7 °F 82% 29.85 in 10.0 mi West 6.9 mph - N/A   Mostly Cloudy
4:55 PM 40.1 °F 36.1 °F 32.4 °F 74% 29.87 in 10.0 mi West 5.8 mph - N/A   Mostly Cloudy
5:55 PM 38.8 °F 32.6 °F 32.0 °F 76% 29.89 in 10.0 mi WSW 9.2 mph - N/A   Mostly Cloudy
6:55 PM 35.8 °F 30.1 °F 30.4 °F 81% 29.91 in 10.0 mi WSW 6.9 mph - N/A   Scattered Clouds
7:55 PM 33.8 °F 27.7 °F 29.1 °F 83% 29.93 in 10.0 mi SSW 6.9 mph - N/A   Scattered Clouds
8:55 PM 33.6 °F 29.4 °F 29.1 °F 84% 29.94 in 10.0 mi SSW 4.6 mph - N/A   Clear
9:55 PM 32.5 °F 29.3 °F 28.8 °F 86% 29.95 in 10.0 mi South 3.5 mph - N/A   Clear
10:55 PM 31.3 °F 25.6 °F 28.8 °F 90% 29.95 in 10.0 mi SSW 5.8 mph - N/A   Clear
11:55 PM 32.2 °F 24.4 °F 30.0 °F 92% 29.96 in 10.0 mi SSW 9.2 mph - N/A   Clear